Location: Mauries
(43.6188°N, 0.3322°W)
Time: 05:43:59
(UTC+00:00)

Okean 3 Rocket - Pass Details

Date: 14 January 2026
Orbit: 610 x 637 km, 82.5° (Epoch: 14 February)

Event Time Altitude Azimuth Distance (km) Brightness Sun altitude
Rises 05:40:18 0° 199° (SSW) 2,865 6.9 -19.8°
Reaches altitude 10° 05:42:33 10° 205° (SSW) 1,968 6.0 -19.4°
Maximum altitude 05:46:48 51° 282° (WNW) 778 3.6 -18.6°
Drops below altitude 10° 05:51:07 10° 359° (N) 1,999 6.0 -17.9°
Sets 05:53:25 0° 4° (N) 2,914 6.9 -17.5°
